Regional Weather Roundup
Issued by NWS Grand Forks, ND

Home | Current Version | Previous Version | Text Only | Print | Product List | Glossary On
Versions: 1 2 3 4 5 6 7 8 9 10 11 12 13 14 15 16 17 18 19 20 21 22 23 24 25 26 27 28 29 30 31 32 33 34 35 36 37 38 39 40 41 42 43 44 45 46 47 48 49 50
000
ASUS43 KFGF 161031
RWRFGF
PRAIRIE TO PINES  WEATHER ROUNDUP
NATIONAL WEATHER SERVICE EASTERN NORTH DAKOTA/GRAND FORKS ND
500 AM CDT TUE SEP 16 2014

 **SATELLITE DATA USED TO AUGMENT SKY COVER AT AUTOMATED STATIONS**
 *****  WEATHER ACROSS EASTERN NORTH DAKOTA  *****

CITY           SKY/WX    TMP DP  RH WIND       PRES   REMARKS
GRAND FORKS    CLEAR     50  38  63 SW12      30.05S
GRAND FRKS AFB CLEAR     49  39  69 SW9       30.05S
GRAND FRKS NWS   N/A     48 N/A N/A SW7         N/A
DEVILS LAKE    CLEAR     52  39  62 SW10      30.03F
FARGO          CLEAR     45  38  76 SW9       30.10F
WAHPETON ARPT  SUNNY     36  32  87 S3        30.13S
$$

 ***** WEATHER ACROSS CENTRAL AND WESTERN NORTH DAKOTA  *****

CITY           SKY/WX    TMP DP  RH WIND       PRES   REMARKS
BISMARCK       CLEAR     42  38  85 E5        30.07F
MINOT          CLEAR     48  39  71 SW10      30.02F
JAMESTOWN      CLEAR     39  35  86 S3        30.08F
MINOT AFB      CLEAR     46  40  80 SW8       30.01F
GARRISON         N/A     46  41  82 CALM      30.05F
WILLISTON      CLEAR     38  33  82 CALM      30.03S
DICKINSON      CLEAR     42  37  82 CALM      30.03F
HETTINGER      CLEAR     38  35  89 CALM      30.05F
$$

 *****  OTHER AIRPORT OBSERVATIONS IN OUR AREA  *****

CITY           SKY/WX    TMP DP  RH WIND       PRES   REMARKS
WALHALLA       FAIR      54  37  54 W9        29.99F
GRAFTON AIRPOR FAIR      48  41  76 SW9       30.01F
VALLEY CITY AR FAIR      41  37  87 SW9       30.09F
CANDO          FAIR      41  37  87 W6        30.04S
CAVALIER APRT  FAIR      54  39  58 SW9       29.99F
GWINNER        SUNNY     43  37  81 SW9       30.14S
ROLLA          FAIR      45  37  76 SW9       30.03S
 ***** THE ABOVE OBSERVATIONS ARE NON NWS ARE NOT QUALITY
       CONTROLLED AND MAY MIS-REPORT RAIN FOR SNOW...
$$

  *****  WEATHER ACROSS NORTHERN MINNESOTA  *****

CITY           SKY/WX    TMP DP  RH WIND       PRES   REMARKS
FLAG ISLAND    CLOUDY    52  41  66 SW17      29.93F
WARROAD        CLOUDY    48  43  81 SW9       29.99F
ROSEAU         PTCLDY    52  43  71 SW13      29.99F
HALLOCK        CLEAR     39  37  93 S7        30.00S
THF RVR FALLS  CLEAR     45  37  76 SW10      30.05F
BAUDETTE       MOCLDY    44  40  85 SW6       30.00S
WASKISH        CLEAR     52  45  76 SW3       30.04S
CROOKSTON      CLEAR     41  37  87 S9        30.07F
STEPHEN NDAWN    N/A     43  39  87 S8          N/A
GREENBUSH NDAW   N/A     46  39  76 SW9         N/A
$$
  *****  WEATHER ACROSS CENTRAL AND WEST MINNESOTA  *****

CITY           SKY/WX    TMP DP  RH WIND       PRES   REMARKS
FOSSTON        CLEAR     37  36  93 S7        30.09F
BEMIDJI        CLEAR     43  37  81 SW6       30.08F
PARK RAPIDS    CLEAR     40  35  83 SW5       30.11F
ELBOW LAKE     FAIR      37  35  91 S7        30.14F
WADENA         CLEAR     43  36  75 SW6       30.13S
DETROIT LAKES  CLEAR     46  37  71 SW6       30.12S
MOORHEAD       CLEAR     43  41  93 S6        30.11F
FERGUS FALLS   CLEAR     41  34  75 S6        30.15S
MORRIS MN      CLEAR     37  36  93 S6        30.15F
STAPLES        CLEAR     43  36  75 SW5       30.13F
$$
  *****  WEATHER ELSEWHERE ACROSS MINNESOTA  *****

CITY           SKY/WX    TMP DP  RH WIND       PRES   REMARKS
DULUTH         CLEAR     46  37  71 W14       30.10S
INTRNTL FALLS  CLEAR     39  37  92 SW6       30.00F
ELY            CLEAR     41  37  87 SW5       30.04S
CLOQUET        CLEAR     45  37  76 SW8       30.11S
WHEATON        CLEAR     37  36  93 S5        30.16S
BRAINERD       CLEAR     39  35  86 SW6       30.14F
HIBBING        CLEAR     31  28  89 CALM      30.08F
ALEXANDRIA     CLEAR     44  36  73 SW10      30.17F
SAINT CLOUD    CLEAR     40  37  89 CALM      30.18S
MINNEAPOLIS    CLEAR     44  40  85 S3        30.20F
$$

  *****  WEATHER ACROSS SOUTH DAKOTA  *****

CITY           SKY/WX    TMP DP  RH WIND       PRES   REMARKS
SIOUX FALLS    CLEAR     42  39  89 CALM      30.21S
BROOKINGS      NOT AVBL
WATERTOWN      CLEAR     36  35  96 S3        30.18S
HURON          CLEAR     41  36  82 SE5       30.16F
SISSETON         N/A     47  39  74 SW8       30.13F
ABERDEEN       CLEAR     33  33 100 S3        30.15F
MITCHELL       CLEAR     44  40  85 S7        30.19F
PIERRE         CLEAR     46  40  79 SE9       30.07F
MOBRIDGE       CLEAR     48  39  71 SE10      30.05F
RAPID CITY     CLEAR     43  40  89 NE3       30.04F
$$

  *****  SOME WEATHER IN NEARBY STATES *****

CITY           SKY/WX    TMP DP  RH WIND       PRES   REMARKS
GLASGOW MT     CLEAR     46  35  65 SE9       30.00F
GREAT FALLS MT PTCLDY    48  36  63 CALM      30.01S
CHEYENNE WY    PTCLDY    56  38  50 W13       30.20F
SCOTTSBLUFF NE MOCLDY    52  50  93 E9        30.09F
OMAHA NE       PTCLDY    45  43  93 CALM      30.26F FOG
DES MOINES IA  CLEAR     47  43  86 CALM      30.26S
DAVENPORT IA   CLEAR     39  36  89 NW6       30.23S
CHICAGO IL     CLEAR     47  44  90 W3        30.19S
EAU CLAIRE WI  CLEAR     39  36  89 SW6       30.20S
LA CROSSE WI   FOG       46  44  93 S7        30.22S VSB 1/2
$$

  *****  SOME NATIONAL WEATHER *****

CITY           SKY/WX    TMP DP  RH WIND       PRES   REMARKS
LA GUARDIA NY  MOCLDY    63  54  72 SE5       30.00F
RALEIGH NC     MOCLDY    68  64  88 CALM      30.05S
ATLANTA GA     LGT RAIN  72  70  93 CALM      30.11R FOG
NEW ORLEANS LA PTCLDY    77  74  90 CALM      30.05S
OKLAHOMA CITY  MOCLDY    71  68  90 SE5       30.15S
ALBUQUERQUE NM CLOUDY    66  57  72 NE7       30.30S
SALT LAKE CITY CLEAR     67  42  40 SE10      30.08F
LOS ANGELES CA CLEAR     75  61  61 E5        29.77F
BOISE ID       MOCLDY    77  45  32 E5        29.94S
SEATTLE WA     PTCLDY    58  52  80 S7        29.87R
$$

*** WEATHER ACROSS MANITOBA...SASKATCHEWAN AND ONTARIO ***
                ***ONTARIO***

CITY           SKY/WX    TMP DP  RH WIND       PRES   REMARKS
GERALDTON      MOCLDY    46  41  81 W9        29.87F
THUNDER BAY    MOCLDY    37  37 100 NW5       30.00F
SIOUX LOOKOUT  LGT RAIN  48  43  81 SE3       29.89F
TORONTO        PTCLDY    50  46  87 NW9       30.05S
BIG TROUT LK   MOCLDY    30  28  93 N7        29.96S WCI  23
PICKLE LAKE    NOT AVBL
DRYDEN         CLOUDY    50  41  71 SW14      29.90F
KENORA         MOCLDY    52  39  62 W15G21    29.92F
$$
                *** MANITOBA***

CITY           SKY/WX    TMP DP  RH WIND       PRES   REMARKS
BRANDON        MOCLDY    46  41  81 W8        29.99S
DAUPHIN        CLOUDY    52  46  82 N5        29.97S
ISLAND LAKE    CLOUDY    34  32  93 CALM      30.06R
PILOT MOUND      N/A     41  36  81 SW6         N/A
THE PAS        CLOUDY    37  32  81 E8        30.07R
THOMPSON       CLEAR     19  19 100 CALM      30.13R
WINNIPEG       MOCLDY    54  41  62 W10       29.96R
LYNN LAKE      MOCLDY    25  21  86 MISG      30.14R
CHURCHILL      CLOUDY    34  27  75 N18G25    30.05R WCI  23
GILLAM         CLEAR     30  28  93 NW18      30.08S WCI  18
$$
                ***SASKATCHEWAN***

CITY           SKY/WX    TMP DP  RH WIND       PRES   REMARKS
ESTEVAN        CLEAR     41  36  81 SW8       30.02F
KINDERSLEY     CLEAR     41  36  81 SW3       29.95S
LLOYDMINSTER   CLEAR     48  43  81 S5        29.93F
PRINCE ALBERT  MOCLDY    48  45  87 E7        29.94S
REGINA         CLEAR     39  36  87 E7        30.00S
YORKTON        PTCLDY    48  41  76 W5        29.96F
N. BATTLEFORD  CLEAR     39  39 100 CALM      29.95S
LA RONGE       CLOUDY    43  39  87 E12       30.00R
SASKATOON      CLEAR     43  39  87 S3        29.96F
SWIFT CURRENT  CLEAR     46  39  76 SW12      29.97F
$$
NOTE: THESE ARE AUTOMATED STATIONS WITH LIMITED QUALITY CONTROL
      "FAIR" INDICATES FEW OR NO CLOUDS BELOW 12,000 FEET WITH NO
      SIGNIFICANT WEATHER AND/OR OBSTRUCTIONS TO VISIBILITY.
      SKY/WX - SKY CONDITION AND SIGNIFICANT WEATHER.
      TMP - AIR TEMPERATURE.    DP   - DEWPOINT TEMPERATURE.
      RH  - RELATIVE HUMIDITY.  PRES - PRESSURE.
      HX  - HEAT INDEX.         WCI  - WIND CHILL INDEX.
$



USA.gov is the U.S. government's official web portal to all federal, state and local government web resources and services.